Regional Weather Roundup
Issued by NWS New Orleans/Baton Rouge, LA

Home | Current Version | Previous Version | Text Only | Print | Product List | Glossary On
Versions: 1 2 3 4 5 6 7 8 9 10 11 12 13 14 15 16 17 18 19 20 21 22 23 24 25 26 27 28 29 30 31 32 33 34 35 36 37 38 39 40 41 42 43 44 45 46 47 48 49 50
435
ASUS44 KLIX 232013
RWRLIX
NEW ORLEANS REGIONAL WEATHER ROUNDUP
NATIONAL WEATHER SERVICE NEW ORLEANS LA
300 PM CDT THU MAR 23 2017

NOTE: "FAIR" INDICATES FEW OR NO CLOUDS BELOW 12,000 FEET WITH NO
      SIGNIFICANT WEATHER AND/OR OBSTRUCTIONS TO VISIBILITY.
      SKY/WX - SKY CONDITION AND SIGNIFICANT WEATHER.
      TMP - AIR TEMPERATURE.     DP    - DEWPOINT TEMPERATURE.
      RH  - RELATIVE HUMIDITY.   PRES  - PRESSURE.
      HI  - HEAT INDEX.          WCI   - WIND CHILL INDEX.

*  THESE STATIONS ARE NOT NWS OR FAA STATIONS AND ARE NOT UNDER
   NWS QUALITY CONTROL.

LAZ038-040-048-061>063-065>067-069-232100-
SOUTHEAST LOUISIANA

CITY           SKY/WX    TMP DP  RH WIND       PRES   REMARKS
N.O. INTL ARPT MOSUNNY   82  62  50 SE10      30.17F
N.O. LAKEFRONT SUNNY     79  65  62 E16       30.18F
N.O. DOWNTOWN*   N/A     82  60  47 VRB5      30.18F
RESERVE*         N/A     86  60  41 E9G16     30.17F
SLIDELL        SUNNY     79  61  53 E12G18    30.18F
BATON ROUGE    MOSUNNY   86  59  39 E8        30.15F
BOOTHVILLE     SUNNY     75  69  81 NE8       30.20S
BELLE CHASSE   MOSUNNY   81  66  60 E10       30.18F
BOGALUSA*        N/A     85  53  32 S9G20     30.19F
GALLIANO*      CLEAR     78  65  65 SE7       30.18F
NEW ROADS*       N/A     82  59  44 S9        30.15F
GONZALES*        N/A     84  59  42 S10       30.15F
HAMMOND*       SUNNY     81  59  47 SE8       30.17F
HOUMA*         SUNNY     82  66  57 E12       30.17F
PORT FOURCHON* CLEAR     73  68  83 SE8       30.18F

$$

MSZ070-080>082-232100-
SOUTHERN MISSISSIPPI

CITY           SKY/WX    TMP DP  RH WIND       PRES   REMARKS
MCCOMB         MOSUNNY   84  54  35 S12G17    30.16F
GULFPORT       MOSUNNY   75  65  70 E16       30.20F
BILOXI         PTSUNNY   75  66  73 SE17      30.20F
PASCAGOULA     SUNNY     77  63  61 SE13      30.21F
STENNIS ARPT*  SUNNY     73  63  68 SE12G18   30.21S

$$

COASTAL OBSERVATIONS
LAKE AND NEARSHORE STATIONS

STATION/POSITION TIME  TEMP    WIND        PRES    WAVE
                       AIR SEA DIR/SP/G            HT/PER
                 (UTC) (F)     (DEG/KT/KT) (MB)    (FT/S)
PASCAGOULA       1948   74     120/ 17/ 23 1022.9
WAVELAND YACHT   1948   70 71  120/ 13/ 17 1022.8
GRAND ISLE       1948   72 72  120/  5/  8 1021.9
SOUTHWEST PASS   1948           80/  6/  8   N/A
SHELL BEACH      1948   74 75  100/ 11/ 14 1022.5

OFFSHORE STATIONS

STATION/POSITION TIME  TEMP    WIND        PRES    WAVE
                       AIR SEA DIR/SP/G            HT/PER
                 (UTC) (F)     (DEG/KT/KT) (MB)    (FT/S)
64 S DAUPHIN ISL 1950   72 73   90/ 12/ 16 1022.3    3/ 6

$$





USA.gov is the U.S. government's official web portal to all federal, state and local government web resources and services.